Location: Mentone
(34.5413°N, 85.5351°W)
Time: 15:40:22
(UTC-05:00)

A-11 Canister half - Visible Passes

Search period start: 28 May 2016 00:00
Search period end: 07 June 2016 00:00
Orbit: 1527 x 1683 km, 47.3° (Epoch: 27 May)

Date Brightness Start Highest point End Pass type
(mag) Time Alt. Az. Time Alt. Az. Time Alt. Az.
28 May 9.7 01:52:23 10° NW 02:01:44 53° NNE 02:11:22 10° E visible
28 May 9.0 03:57:33 10° WNW 04:07:08 65° SW 04:17:00 10° SE visible
28 May 9.5 21:17:18 10° WSW 21:26:28 60° NNW 21:35:52 10° NE visible
28 May 10.2 23:24:32 10° WNW 23:33:08 38° N 23:41:59 10° ENE visible
29 May 9.7 01:30:49 10° NW 01:40:05 52° NNE 01:49:39 10° E visible
29 May 9.0 03:35:58 10° WNW 03:45:33 68° SW 03:55:27 10° SE visible
29 May 9.5 20:55:40 10° WSW 21:04:52 62° NNW 21:14:15 10° NE visible
29 May 10.2 23:02:52 10° WNW 23:11:28 38° N 23:20:17 10° ENE visible
30 May 9.7 01:09:13 10° NW 01:18:26 50° NNE 01:27:56 10° E visible
30 May 8.9 03:14:22 10° WNW 03:23:59 71° SW 03:33:53 10° SE visible
30 May 9.5 20:34:02 10° WSW 20:43:16 65° NNW 20:52:40 10° NE visible
30 May 10.2 22:41:13 10° WNW 22:49:48 38° N 22:58:36 10° ENE visible
31 May 9.8 00:47:39 10° NW 00:56:48 49° NNE 01:06:13 10° E visible
31 May 8.9 02:52:47 10° WNW 03:02:24 74° SW 03:12:19 10° SE visible
31 May 10.0 04:59:58 10° W 05:06:25 20° SW 05:13:01 10° SSW visible
31 May 9.5 20:12:25 10° WSW 20:21:40 67° NNW 20:31:05 10° NE visible
31 May 10.2 22:19:33 10° WNW 22:28:08 39° N 22:36:55 10° ENE visible
01 Jun 9.8 00:26:04 10° NW 00:35:09 47° NNE 00:44:29 10° E visible
01 Jun 8.9 02:31:13 10° WNW 02:40:49 78° SW 02:50:45 10° SE visible
01 Jun 10.0 04:38:07 10° W 04:44:54 21° SW 04:51:48 10° S visible
01 Jun 10.2 21:57:52 10° WNW 22:06:28 39° N 22:15:15 10° ENE visible
02 Jun 9.8 00:04:28 10° NW 00:13:30 46° NNE 00:22:47 10° E visible
02 Jun 8.9 02:09:38 10° NW 02:19:14 81° SW 02:29:10 10° SE visible
02 Jun 9.9 04:16:20 10° W 04:23:22 23° SW 04:30:35 10° S visible
02 Jun 10.2 21:36:12 10° WNW 21:44:48 39° N 21:53:35 10° ENE visible
02 Jun 9.9 23:42:53 10° NW 23:51:51 45° NNE 00:01:03 10° E visible
03 Jun 8.9 01:48:04 10° NW 01:57:40 84° SW 02:07:35 10° SE visible
03 Jun 9.8 03:54:33 10° WNW 04:01:50 25° SW 04:09:19 10° S visible
03 Jun 10.2 21:14:32 10° WNW 21:23:08 40° N 21:31:55 10° ENE visible
03 Jun 9.9 23:21:17 10° NW 23:30:11 44° NNE 23:39:20 10° E visible
04 Jun 8.9 01:26:29 10° NW 01:36:04 88° SW 01:44:09 17° SE visible
04 Jun 9.7 03:32:48 10° WNW 03:40:19 26° SW 03:48:02 10° S visible
04 Jun 10.2 20:52:51 10° WNW 21:01:29 40° N 21:10:16 10° ENE visible
04 Jun 9.9 22:59:41 10° NW 23:08:32 43° NNE 23:17:37 10° E visible
05 Jun 8.9 01:04:56 10° NW 01:14:29 89° NE 01:18:48 40° SE visible
05 Jun 9.8 03:11:04 10° WNW 03:16:52 26° WSW 03:16:52 26° WSW visible
05 Jun 10.2 20:31:11 10° W 20:39:50 41° NNW 20:48:37 10° ENE visible
05 Jun 9.9 22:38:05 10° NW 22:46:53 42° NNE 22:55:53 10° E visible
06 Jun 8.9 00:43:21 10° NW 00:52:54 86° NE 00:56:21 47° ESE visible
06 Jun 9.9 02:49:22 10° WNW 02:54:30 26° WSW 02:54:30 26° WSW visible
06 Jun 10.2 20:09:31 10° W 20:18:11 41° NNW 20:26:58 10° NE visible
06 Jun 10.0 22:16:29 10° NW 22:25:13 41° NNE 22:34:10 10° E visible
